Вернуться в каталог

COSMOS 1375 DEB

АктивенLEO
NORAD 17796·DEBRIS·🇷🇺 Russia

Запущен Jun 6, 1982 с Plesetsk Cosmodrome

Loading…

Ближайшие Пролёты (ближайшие 24 часа)

TLE

СвежийSource: Space-Track

Эпоха: Sep 14, 2026, 13:52 UTC

1 17796U 82055AN  26257.57835921  .00000459  00000-0  30836-3 0  9993
2 17796  65.8189 178.5522 0049070 244.1957 175.8830 14.09682849744087

Отслеживайте COSMOS 1375 DEB в реальном времени с AllMySat

Download on the App Store